{"data":{"norad_id":56781,"intl_designator":"2023-078Q","name":"STARLINK-5989","alt_names":[],"object_type":"PAYLOAD","status":"ACTIVE","operator":null,"country":"US","launch_date":"2023-05-31","launch_site_code":"AFWTR","launch_vehicle":null,"mission":null,"orbit_class":"UNKNOWN","rcs_meters":null,"size_class":null,"mass_kg":null,"dimensions":null,"purposes":["comms"],"wikipedia_slug":null,"has_3d_model":false,"image_url":null,"decayed_at":null,"tle_current":{"epoch":"2026-09-20T06:19:29.747136Z","epoch_age_seconds":135388,"freshness":"FRESH","line1":"1 56781U 23078Q   26263.26353874 -.00000532  00000+0 -36762-4 0  9993","line2":"2 56781  69.9998 213.9382 0003338 267.6254  92.4523 14.98324365181826","mean_motion":14.98324365,"eccentricity":0.0003338,"inclination_deg":69.9998,"raan_deg":213.9382,"arg_perigee_deg":267.6254,"mean_anomaly_deg":92.4523,"bstar":-3.6762e-5,"rev_number":18182,"period_min":96.107360571421,"perigee_km":569.75333656796,"apogee_km":574.39329697544,"semimajor_km":6950.2103167717,"source":"CELESTRAK","updated_at":"2026-09-21T09:00:33.487885Z"}}}